When you browse on this site, cookies collect data to enhance your experience and personalize the content and advertising you see.
Visit our Privacy Policy to learn more. By continuing to use the site, you agree to this use of cookies and data.
EN

Hourly Weather Emilchino

Today, 12 July, Sunday

Time Temperature Precipitation Wind Pressure Humidity
00:00 +19°C° 0.1 mm 2 mps 743 mmHg 96%
01:00 +19°C° 0.1 mm 3 mps 743 mmHg 96%
02:00 +19°C° 0 mm 4 mps 744 mmHg 95%
03:00 +18°C° 0.1 mm 4 mps 744 mmHg 95%
04:00 +17°C° 0.1 mm 4 mps 744 mmHg 96%
05:00 +15°C° 0.1 mm 5 mps 743 mmHg 96%
06:00 +15°C° 0.1 mm 4 mps 744 mmHg 96%
07:00 +14°C° 0.1 mm 4 mps 744 mmHg 95%
08:00 +14°C° 0.1 mm 4 mps 744 mmHg 95%
09:00 +14°C° 0.1 mm 4 mps 744 mmHg 95%
10:00 +14°C° 0.1 mm 5 mps 744 mmHg 95%
11:00 +14°C° 0.1 mm 5 mps 744 mmHg 95%
12:00 +13°C° 0.5 mm 5 mps 744 mmHg 95%
13:00 +11°C° 0.5 mm 6 mps 745 mmHg 95%
14:00 +11°C° 0.5 mm 6 mps 745 mmHg 95%
15:00 +10°C° 0.2 mm 6 mps 745 mmHg 95%
16:00 +10°C° 0.2 mm 6 mps 745 mmHg 94%
17:00 +10°C° 0.2 mm 5 mps 745 mmHg 94%
18:00 +10°C° 0 mm 5 mps 746 mmHg 94%
19:00 +11°C° 0 mm 4 mps 746 mmHg 93%
20:00 +11°C° 0 mm 4 mps 746 mmHg 93%
21:00 +11°C° 0 mm 4 mps 746 mmHg 94%
22:00 +10°C° 0 mm 3 mps 745 mmHg 95%
23:00 +10°C° 0 mm 3 mps 745 mmHg 96%

Tomorrow, 13 July, Monday

Time Temperature Precipitation Wind Pressure Humidity
00:00 +10°C° 0 mm 3 mps 745 mmHg 96%
01:00 +10°C° 0 mm 3 mps 745 mmHg 96%
02:00 +10°C° 0 mm 3 mps 745 mmHg 96%
03:00 +10°C° 0 mm 3 mps 745 mmHg 96%
04:00 +9°C° 0 mm 3 mps 745 mmHg 97%
05:00 +9°C° 0 mm 3 mps 744 mmHg 97%
06:00 +11°C° 0 mm 4 mps 745 mmHg 92%
07:00 +12°C° 0 mm 4 mps 745 mmHg 87%
08:00 +14°C° 0 mm 5 mps 745 mmHg 82%
09:00 +15°C° 0 mm 5 mps 745 mmHg 75%
10:00 +17°C° 0 mm 5 mps 744 mmHg 68%
11:00 +19°C° 0 mm 6 mps 744 mmHg 61%
12:00 +19°C° 0 mm 6 mps 744 mmHg 58%
13:00 +20°C° 0 mm 6 mps 744 mmHg 55%
14:00 +20°C° 0 mm 6 mps 744 mmHg 51%
15:00 +20°C° 0 mm 5 mps 744 mmHg 54%
16:00 +20°C° 0 mm 5 mps 743 mmHg 56%
17:00 +19°C° 0 mm 5 mps 743 mmHg 59%
18:00 +18°C° 0 mm 4 mps 743 mmHg 66%
19:00 +15°C° 0 mm 4 mps 743 mmHg 73%
20:00 +14°C° 0 mm 3 mps 743 mmHg 80%
21:00 +13°C° 0 mm 3 mps 743 mmHg 84%
22:00 +12°C° 0 mm 3 mps 743 mmHg 88%
23:00 +11°C° 0 mm 3 mps 743 mmHg 93%

Day after tomorrow, 14 July, Tuesday

Time Temperature Precipitation Wind Pressure Humidity
00:00 +11°C° 0 mm 3 mps 743 mmHg 94%
01:00 +10°C° 0 mm 3 mps 743 mmHg 95%
02:00 +10°C° 0 mm 3 mps 743 mmHg 96%
03:00 +10°C° 0 mm 3 mps 743 mmHg 96%
04:00 +10°C° 0 mm 3 mps 743 mmHg 96%
05:00 +10°C° 0 mm 3 mps 743 mmHg 96%
06:00 +12°C° 0 mm 3 mps 743 mmHg 89%
07:00 +14°C° 0 mm 3 mps 743 mmHg 82%
08:00 +17°C° 0 mm 4 mps 743 mmHg 75%
09:00 +18°C° 0 mm 4 mps 743 mmHg 69%
10:00 +19°C° 0 mm 4 mps 743 mmHg 63%
11:00 +21°C° 0 mm 4 mps 743 mmHg 57%
12:00 +21°C° 0 mm 4 mps 743 mmHg 55%
13:00 +22°C° 0 mm 4 mps 743 mmHg 54%
14:00 +22°C° 0 mm 4 mps 743 mmHg 52%
15:00 +22°C° 0 mm 4 mps 742 mmHg 54%
16:00 +22°C° 0 mm 4 mps 742 mmHg 57%
17:00 +22°C° 0 mm 4 mps 742 mmHg 59%
18:00 +20°C° 0 mm 3 mps 742 mmHg 68%
19:00 +18°C° 0 mm 3 mps 742 mmHg 77%
20:00 +16°C° 0 mm 3 mps 742 mmHg 86%
21:00 +15°C° 0 mm 2 mps 742 mmHg 89%
22:00 +14°C° 0 mm 2 mps 742 mmHg 92%
23:00 +14°C° 0 mm 2 mps 742 mmHg 95%

15 July, Wednesday

Time Temperature Precipitation Wind Pressure Humidity
00:00 +13°C° 0 mm 2 mps 742 mmHg 95%
01:00 +13°C° 0 mm 2 mps 742 mmHg 96%
02:00 +13°C° 0 mm 2 mps 742 mmHg 96%
03:00 +12°C° 0 mm 2 mps 742 mmHg 96%
04:00 +12°C° 0 mm 2 mps 742 mmHg 97%
05:00 +12°C° 0 mm 2 mps 742 mmHg 97%
06:00 +14°C° 0 mm 2 mps 742 mmHg 91%
07:00 +16°C° 0 mm 3 mps 743 mmHg 85%
08:00 +18°C° 0 mm 3 mps 743 mmHg 79%
09:00 +19°C° 0 mm 3 mps 743 mmHg 73%
10:00 +20°C° 0 mm 3 mps 743 mmHg 66%
11:00 +22°C° 0 mm 3 mps 743 mmHg 60%
12:00 +22°C° 0.1 mm 3 mps 743 mmHg 58%
13:00 +24°C° 0.1 mm 3 mps 742 mmHg 56%
14:00 +24°C° 0.1 mm 2 mps 742 mmHg 54%
15:00 +24°C° 0.2 mm 2 mps 742 mmHg 58%
16:00 +23°C° 0.2 mm 2 mps 742 mmHg 63%
17:00 +23°C° 0.2 mm 2 mps 742 mmHg 67%
18:00 +20°C° 0.1 mm 2 mps 742 mmHg 72%
19:00 +20°C° 0.1 mm 1 mps 742 mmHg 77%
20:00 +18°C° 0.1 mm 1 mps 742 mmHg 82%
21:00 +16°C° 0 mm 1 mps 742 mmHg 84%
22:00 +16°C° 0 mm 1 mps 742 mmHg 86%
23:00 +15°C° 0 mm 1 mps 742 mmHg 87%

16 July, Thursday

Time Temperature Precipitation Wind Pressure Humidity
00:00 +15°C° 0 mm 1 mps 741 mmHg 88%
01:00 +14°C° 0 mm 1 mps 741 mmHg 89%
02:00 +14°C° 0 mm 1 mps 741 mmHg 90%
03:00 +14°C° 0 mm 1 mps 741 mmHg 90%
04:00 +14°C° 0 mm 1 mps 740 mmHg 90%
05:00 +14°C° 0 mm 1 mps 740 mmHg 90%
06:00 +16°C° 0.1 mm 2 mps 740 mmHg 86%
07:00 +17°C° 0.1 mm 2 mps 740 mmHg 81%
08:00 +19°C° 0.1 mm 2 mps 740 mmHg 77%
09:00 +20°C° 0.8 mm 3 mps 740 mmHg 75%
10:00 +21°C° 0.8 mm 3 mps 739 mmHg 74%
11:00 +22°C° 0.8 mm 3 mps 739 mmHg 73%
12:00 +23°C° 0.8 mm 4 mps 739 mmHg 71%
13:00 +23°C° 0.8 mm 4 mps 738 mmHg 69%
14:00 +23°C° 0.8 mm 4 mps 738 mmHg 68%
15:00 +22°C° 0.9 mm 4 mps 738 mmHg 75%
16:00 +20°C° 0.9 mm 3 mps 738 mmHg 82%
17:00 +19°C° 0.9 mm 3 mps 737 mmHg 89%
18:00 +18°C° 0.3 mm 3 mps 737 mmHg 91%
19:00 +17°C° 0.3 mm 3 mps 737 mmHg 93%
20:00 +15°C° 0.3 mm 4 mps 737 mmHg 94%
21:00 +16°C° 0 mm 3 mps 737 mmHg 95%
22:00 +14°C° 0 mm 3 mps 737 mmHg 96%
23:00 +13°C° 0 mm 3 mps 737 mmHg 97%

17 July, Friday

Time Temperature Precipitation Wind Pressure Humidity
00:00 +13°C° 0 mm 3 mps 737 mmHg 97%
01:00 +13°C° 0 mm 3 mps 737 mmHg 97%
02:00 +13°C° 0 mm 3 mps 737 mmHg 97%
03:00 +12°C° 0 mm 3 mps 737 mmHg 97%
04:00 +12°C° 0 mm 3 mps 737 mmHg 98%
05:00 +11°C° 0 mm 3 mps 737 mmHg 98%
06:00 +13°C° 0 mm 3 mps 737 mmHg 94%
07:00 +14°C° 0 mm 3 mps 738 mmHg 90%
08:00 +16°C° 0 mm 3 mps 738 mmHg 87%
09:00 +18°C° 0 mm 3 mps 738 mmHg 79%
10:00 +19°C° 0 mm 3 mps 738 mmHg 71%
11:00 +20°C° 0 mm 3 mps 738 mmHg 63%
12:00 +21°C° 0.4 mm 3 mps 738 mmHg 65%
13:00 +21°C° 0.4 mm 3 mps 738 mmHg 66%
14:00 +21°C° 0.4 mm 3 mps 737 mmHg 67%
15:00 +21°C° 0.3 mm 3 mps 737 mmHg 69%
16:00 +20°C° 0.3 mm 3 mps 737 mmHg 70%
17:00 +20°C° 0.3 mm 3 mps 737 mmHg 71%
18:00 +19°C° 0.2 mm 3 mps 737 mmHg 78%
19:00 +17°C° 0.2 mm 3 mps 737 mmHg 84%
20:00 +16°C° 0.2 mm 2 mps 737 mmHg 90%
21:00 +15°C° 0.1 mm 2 mps 738 mmHg 91%
22:00 +15°C° 0.1 mm 2 mps 738 mmHg 93%
23:00 +14°C° 0.1 mm 2 mps 738 mmHg 95%
Show more